Total_Precipitation_Accumulation
0.76 0.78 0.73 0.78 0.70 0.68 0.76 0.83 0.83 0.84 0.76 0.63 0.58 0.58 0.65 0.57 0.52 0.56 0.70 0.81 1.04 1.23 1.31 1.21 1.07 0.99 0.98 0.98 1.18 1.31 1.48 1.73 1.69 1.65 1.42 1.29 1.34 1.24 0.92 0.81 0.78 0.71 0.71
0.81 0.86 0.83 0.83 0.79 0.73 0.76 0.92 0.86 0.90 0.88 0.81 0.64 0.61 0.64 0.61 0.56 0.58 0.67 0.91 1.00 1.04 1.28 1.46 1.36 1.22 1.09 1.05 1.12 1.28 1.55 1.66 1.50 1.49 1.43 1.29 1.27 1.17 0.85 0.75 0.73 0.65 0.71
0.77 0.82 0.85 0.82 0.81 0.82 0.82 0.87 0.89 0.94 0.85 0.79 0.71 0.66 0.63 0.59 0.52 0.58 0.60 0.68 0.66 0.71 0.94 1.24 1.44 1.38 1.28 1.24 1.22 1.36 1.56 1.48 1.37 1.37 1.39 1.24 1.08 1.04 0.93 0.78 0.73 0.66 0.62
0.84 0.84 0.90 0.91 0.95 0.99 0.96 0.96 0.99 1.01 0.95 0.92 0.88 0.82 0.66 0.66 0.60 0.62 0.60 0.59 0.63 0.57 0.68 0.82 1.04 1.20 1.34 1.43 1.52 1.65 1.60 1.36 1.21 1.21 1.28 1.20 1.06 0.98 0.91 0.87 0.76 0.70 0.62
0.91 1.03 1.07 1.12 1.09 1.10 1.12 1.09 1.10 1.03 1.02 1.01 0.92 0.89 0.79 0.74 0.71 0.62 0.68 0.68 0.69 0.63 0.65 0.59 0.65 0.73 0.93 1.19 1.45 1.68 1.59 1.40 1.19 1.09 1.07 1.07 1.08 1.06 0.93 0.86 0.75 0.68 0.66
1.22 1.37 1.46 1.40 1.39 1.37 1.35 1.31 1.39 1.28 1.10 1.08 1.01 0.94 0.81 0.72 0.78 0.74 0.75 0.76 0.79 0.77 0.71 0.61 0.55 0.48 0.57 0.78 1.05 1.38 1.53 1.44 1.25 1.09 1.03 1.00 1.04 1.07 0.95 0.86 0.77 0.75 0.72
1.61 1.72 1.65 1.73 1.77 1.63 1.62 1.66 1.73 1.68 1.41 1.26 1.32 1.21 0.94 0.70 0.77 0.76 0.75 0.79 0.86 0.98 1.01 0.87 0.71 0.63 0.54 0.54 0.63 0.98 1.40 1.51 1.51 1.29 1.13 1.10 1.07 1.04 0.97 0.85 0.76 0.74 0.76
1.84 1.88 1.96 2.02 2.05 2.04 2.00 1.88 1.96 2.05 1.79 1.56 1.64 1.90 1.49 1.10 0.77 0.64 0.73 0.77 0.87 1.11 1.18 1.02 0.83 0.72 0.64 0.68 0.47 0.60 0.96 1.38 1.58 1.56 1.39 1.28 1.16 1.04 1.02 0.91 0.76 0.70 0.72
2.08 2.10 2.16 2.22 2.22 2.07 2.05 2.14 2.24 2.55 2.35 2.00 1.82 2.05 1.82 1.49 1.21 0.80 0.75 0.82 0.90 1.08 1.21 1.24 1.11 1.02 0.90 0.86 0.74 0.52 0.57 0.95 1.31 1.58 1.64 1.52 1.31 1.15 1.11 1.01 0.88 0.78 0.72
2.01 2.12 2.14 2.13 2.10 2.03 2.09 2.15 2.19 2.55 2.72 2.42 2.11 1.77 1.56 1.52 1.55 1.24 0.91 0.87 0.96 0.98 1.09 1.17 1.14 1.20 1.17 1.10 1.00 0.69 0.54 0.72 1.04 1.46 1.76 1.90 1.62 1.33 1.14 1.06 1.03 0.92 0.79
1.87 1.91 1.93 2.01 2.04 2.08 2.14 2.29 2.39 2.61 2.63 2.62 2.44 2.26 2.04 1.74 1.39 1.42 1.34 1.10 1.07 0.98 1.07 1.21 1.27 1.34 1.32 1.28 1.32 1.00 0.71 0.62 0.83 1.22 1.66 1.99 1.93 1.67 1.43 1.27 1.23 1.16 0.94
1.85 1.79 1.76 1.82 1.94 2.11 2.17 2.25 2.38 2.60 2.70 2.78 2.70 2.44 2.34 2.16 1.86 1.73 1.48 1.35 1.33 1.14 1.11 1.15 1.19 1.31 1.42 1.44 1.34 1.40 1.08 0.72 0.66 0.93 1.23 1.60 1.95 2.00 1.83 1.71 1.59 1.56 1.39
1.56 1.58 1.66 1.75 1.89 2.01 2.09 2.20 2.34 2.38 2.49 2.72 2.73 2.57 2.35 2.14 2.10 1.99 1.87 1.55 1.38 1.20 1.16 1.16 1.12 1.15 1.14 1.36 1.43 1.49 1.18 0.88 0.68 0.70 0.83 0.93 1.23 1.60 1.85 1.88 1.90 1.98 1.97
1.45 1.39 1.43 1.53 1.76 1.97 2.05 2.14 2.15 2.13 2.18 2.36 2.36 2.43 2.38 2.09 2.04 1.94 1.92 1.98 1.71 1.51 1.33 1.15 1.05 1.07 1.03 1.18 1.40 1.44 1.09 0.96 0.79 0.68 0.71 0.77 0.75 0.92 1.21 1.57 1.82 2.03 2.24
1.24 1.19 1.21 1.25 1.38 1.62 1.88 2.04 1.98 1.90 1.87 2.02 2.08 2.17 2.28 2.29 2.21 2.10 2.06 2.10 2.02 1.77 1.58 1.37 1.16 1.04 1.03 1.06 1.35 1.21 1.07 1.01 0.95 0.80 0.74 0.78 0.72 0.67 0.76 0.93 1.14 1.32 1.60
1.04 1.05 1.04 1.09 1.22 1.33 1.54 1.78 1.88 1.83 1.80 1.85 1.96 2.09 2.22 2.32 2.36 2.17 2.12 2.09 1.93 1.82 1.67 1.39 1.17 1.07 1.12 1.05 1.27 1.19 1.15 1.22 1.06 0.94 0.88 0.84 0.84 0.74 0.72 0.73 0.76 0.78 0.82
0.80 0.83 1.00 1.06 1.14 1.22 1.39 1.65 1.83 1.84 1.76 1.77 1.77 1.85 2.02 2.10 2.32 2.30 2.21 2.10 1.96 1.78 1.64 1.49 1.29 1.10 1.16 1.21 1.25 1.28 1.21 1.11 0.97 0.99 0.91 0.87 0.85 0.84 0.79 0.79 0.78 0.72 0.66
0.55 0.68 0.81 0.86 0.90 0.96 1.14 1.44 1.63 1.67 1.64 1.56 1.55 1.67 1.89 2.05 2.26 2.38 2.33 2.19 2.08 1.93 1.82 1.76 1.58 1.34 1.23 1.27 1.36 1.45 1.41 1.28 1.20 1.21 1.10 0.98 0.92 0.86 0.85 0.83 0.81 0.77 0.71
0.58 0.68 0.78 0.84 0.86 0.92 0.96 1.07 1.23 1.36 1.35 1.29 1.33 1.40 1.46 1.64 1.91 2.11 2.15 2.17 2.20 2.16 2.10 1.96 1.76 1.60 1.45 1.35 1.41 1.45 1.43 1.47 1.33 1.34 1.34 1.25 1.17 1.08 1.00 0.95 0.90 0.84 0.78
0.53 0.60 0.65 0.73 0.81 0.88 0.89 0.91 0.94 1.01 1.03 1.09 1.15 1.21 1.25 1.29 1.49 1.67 1.78 1.98 2.21 2.22 2.21 2.13 1.93 1.75 1.60 1.47 1.50 1.56 1.61 1.58 1.47 1.32 1.31 1.25 1.27 1.23 1.13 0.98 0.91 0.86 0.83
0.43 0.49 0.56 0.60 0.67 0.76 0.85 0.88 0.76 0.73 0.80 0.91 0.95 0.93 0.96 1.04 1.16 1.25 1.32 1.68 2.03 2.21 2.18 2.12 1.99 1.88 1.64 1.50 1.38 1.37 1.55 1.77 1.74 1.65 1.57 1.35 1.25 1.17 1.12 1.08 0.98 0.90 0.86
0.40 0.45 0.46 0.49 0.61 0.66 0.79 0.77 0.61 0.59 0.63 0.74 0.83 0.83 0.74 0.74 0.79 0.85 0.93 1.12 1.40 1.65 1.92 2.08 2.00 1.82 1.61 1.50 1.44 1.46 1.50 1.61 1.68 1.59 1.67 1.69 1.59 1.50 1.40 1.27 1.26 1.18 1.07
0.36 0.40 0.41 0.42 0.48 0.62 0.66 0.52 0.49 0.52 0.60 0.65 0.71 0.77 0.70 0.61 0.69 0.74 0.84 0.91 0.93 1.01 1.30 1.64 1.76 1.71 1.78 1.65 1.60 1.53 1.50 1.56 1.60 1.56 1.69 1.74 1.74 1.68 1.60 1.57 1.65 1.50 1.33
0.43 0.43 0.46 0.47 0.48 0.53 0.51 0.41 0.43 0.47 0.53 0.58 0.66 0.75 0.80 0.72 0.72 0.83 0.84 0.88 0.84 0.80 1.00 1.02 1.19 1.48 1.67 1.75 1.71 1.79 1.95 1.91 1.77 1.63 1.56 1.59 1.54 1.52 1.53 1.52 1.63 1.56 1.44
0.42 0.45 0.49 0.50 0.47 0.45 0.45 0.37 0.39 0.47 0.52 0.57 0.59 0.65 0.72 0.70 0.83 0.92 0.92 1.05 1.03 0.91 1.03 1.10 1.14 1.18 1.31 1.47 1.59 1.66 1.74 1.81 1.78 1.68 1.48 1.35 1.31 1.30 1.34 1.34 1.34 1.39 1.40
0.25 0.33 0.35 0.39 0.43 0.43 0.52 0.41 0.41 0.47 0.56 0.66 0.67 0.65 0.78 0.78 0.84 0.83 0.82 1.06 1.08 0.95 0.87 0.93 0.94 0.92 0.88 0.99 1.20 1.38 1.58 1.66 1.63 1.55 1.32 1.19 1.17 1.20 1.18 1.04 0.94 0.94 0.97